map of YYR home
Great Circle Mapper logo
YYR - Airport
Location
City:  Goose Bay, Newfoundland and Labrador, Canada
ICAO / IATA:CYYR / YYR

Details
Type:Airport (Airfield)
Use:Public/Civil, Military
Latitude:5319'09"N (53.319168)
Longitude:6025'33"W (-60.425832)
Datum:WGS 1984
Elevation:160 ft (49 m)
Runways:2
Longest:11046 × 209 ft (3367 × 63.5 m), paved

Time
Time Zone:UTC-3:30 (DST-2:30)
Local Time:

Weather
METAR:CYYR 011900Z 28009KT 15SM FEW060 FEW100 BKN380 05/M09 A3021 RMK SC1AC1CI2 CONTRAILS SLP234
TAF:CYYR 011730Z 0118/0218 30010G20KT P6SM FEW050 SCT340
BECMG 0201/0203 VRB03KT
FM020900 VRB03KT P6SM BKN070
BECMG 0215/0217 20008KT FEW070
RMK NXT FCST BY 020000Z

Related Locations
Nearby:
Farthest:YWKS: 11465 mi / 18451 km
Wilkins Runway (Casey), Upper Peterson Glacier, AQ

Find:

   beyond  
but within

Other Information
Maps:
NOTAMs:
Links:
Sources:

  
flag of Canada
flag of Newfoundland and Labrador
  

Airport Diagram

Airport diagram for YYR

Airport diagram PDF

Sectional Chart

Flight Planning
at skyvector.com

Satellite Image

Google Maps Satellite View

 

Copyright © 2004-2014 Karl L. Swartz. All rights reserved.
The Great Circle Mapper name and logo are trademarks of the Great Circle Mapper.
All other trademarks mentioned herein belong to their respective owners.
Please see credits for attibutions and further copyright information.

  Follow gcmap on Facebook Follow gcmap on Twitter

hCard Microformat

Geo Microformat